User: anonymous   Login
Location: Menard
(37.9101°N, 89.8398°W)
Time: 21:03:16
(UTC+00:00)
Language:

VELOX 1 - Orbit

View from above orbital plane
View from above orbital plane
View from above satellite
View from above satellite

Ground track
Ground track

The orbit is defined by the following mean orbital elements,

1 40057U          26040.54571274 +.00000000 +00000-0 +56162-3 0 00009
2 40057  98.2666 298.3653 0007576 347.0878  13.0147 14.96493520    02
Epoch (UTC): 09 February 2026 13:05:49
Eccentricity: 0.0007576
inclination: 98.2666°
perigee height: 572 km
apogee height: 583 km
right ascension of ascending node: 298.3653°
argument of perigee: 347.0878°
revolutions per day: 14.96493520
mean anomaly at epoch: 13.0147°

The dashed part of the orbit path shows where the satellite is in the earth's shadow,  

DLR